Time,TemperatureF,DewpointF,PressureIn,WindDirection,WindDirectionDegrees,WindSpeedMPH,WindSpeedGustMPH,Humidity,HourlyPrecipIn,Conditions,Clouds,dailyrainin,SoftwareType,DateUTC
2013-04-11 00:08:00,76.2,72.0,30.05,ESE,107,9.0,16.0,86,0.00,,,0.00,weatherlink.com 1.10,2013-04-11 04:08:00,
2013-04-11 00:23:00,76.1,71.0,30.05,East,92,15.0,15.0,85,0.00,,,0.00,weatherlink.com 1.10,2013-04-11 04:23:00,
2013-04-11 00:38:00,76.1,71.0,30.05,ENE,72,3.0,16.0,85,0.00,,,0.00,weatherlink.com 1.10,2013-04-11 04:38:00,
2013-04-11 00:53:00,76.0,71.0,30.05,ESE,109,10.0,15.0,85,0.00,,,0.00,weatherlink.com 1.10,2013-04-11 04:53:00,
2013-04-11 01:08:00,76.0,72.0,30.04,ENE,74,3.0,14.0,86,0.00,,,0.00,weatherlink.com 1.10,2013-04-11 05:08:00,
2013-04-11 01:23:00,75.9,72.0,30.04,SSE,148,7.0,12.0,86,0.00,,,0.00,weatherlink.com 1.10,2013-04-11 05:23:00,
2013-04-11 01:38:00,75.8,72.0,30.03,East,86,7.0,11.0,87,0.00,,,0.00,weatherlink.com 1.10,2013-04-11 05:38:00,
2013-04-11 01:53:00,75.8,71.0,30.02,East,90,8.0,11.0,86,0.00,,,0.00,weatherlink.com 1.10,2013-04-11 05:53:00,
2013-04-11 02:08:00,75.7,71.0,30.02,East,94,6.0,14.0,86,0.00,,,0.00,weatherlink.com 1.10,2013-04-11 06:08:00,
2013-04-11 02:23:00,75.7,71.0,30.01,NE,46,6.0,15.0,86,0.00,,,0.00,weatherlink.com 1.10,2013-04-11 06:23:00,
2013-04-11 02:38:00,75.6,71.0,30.01,East,94,7.0,13.0,85,0.00,,,0.00,weatherlink.com 1.10,2013-04-11 06:38:00,
2013-04-11 02:53:00,75.6,71.0,30.00,NE,54,8.0,14.0,85,0.00,,,0.00,weatherlink.com 1.10,2013-04-11 06:53:00,
2013-04-11 03:08:00,75.4,71.0,30.00,ENE,61,4.0,16.0,86,0.00,,,0.00,weatherlink.com 1.10,2013-04-11 07:08:00,
2013-04-11 03:23:00,75.3,71.0,30.00,ENE,75,7.0,13.0,85,0.00,,,0.00,weatherlink.com 1.10,2013-04-11 07:23:00,
2013-04-11 03:38:00,75.3,71.0,29.99,East,85,8.0,13.0,85,0.00,,,0.00,weatherlink.com 1.10,2013-04-11 07:38:00,
2013-04-11 03:53:00,75.1,71.0,29.99,East,99,7.0,12.0,86,0.00,,,0.00,weatherlink.com 1.10,2013-04-11 07:53:00,
2013-04-11 04:08:00,75.1,71.0,29.99,NNE,29,8.0,14.0,86,0.00,,,0.00,weatherlink.com 1.10,2013-04-11 08:08:00,
2013-04-11 04:23:00,75.1,71.0,29.99,ESE,109,7.0,13.0,86,0.00,,,0.00,weatherlink.com 1.10,2013-04-11 08:23:00,
2013-04-11 04:38:00,75.1,71.0,29.99,ENE,63,4.0,16.0,86,0.00,,,0.00,weatherlink.com 1.10,2013-04-11 08:38:00,
2013-04-11 04:53:00,75.0,71.0,29.99,ESE,108,3.0,14.0,87,0.00,,,0.00,weatherlink.com 1.10,2013-04-11 08:53:00,
2013-04-11 05:08:00,75.0,71.0,29.99,ENE,71,5.0,12.0,87,0.00,,,0.00,weatherlink.com 1.10,2013-04-11 09:08:00,
2013-04-11 05:23:00,75.0,71.0,29.99,ENE,77,7.0,13.0,87,0.00,,,0.00,weatherlink.com 1.10,2013-04-11 09:23:00,
2013-04-11 05:38:00,75.0,71.0,29.99,ESE,112,4.0,13.0,87,0.00,,,0.00,weatherlink.com 1.10,2013-04-11 09:38:00,
2013-04-11 05:53:00,74.9,71.0,29.99,East,81,5.0,13.0,87,0.00,,,0.00,weatherlink.com 1.10,2013-04-11 09:53:00,
2013-04-11 06:08:00,74.9,71.0,30.00,ENE,72,3.0,9.0,87,0.00,,,0.00,weatherlink.com 1.10,2013-04-11 10:08:00,
2013-04-11 06:23:00,75.1,71.0,30.00,ENE,71,3.0,11.0,87,0.00,,,0.00,weatherlink.com 1.10,2013-04-11 10:23:00,
2013-04-11 06:38:00,75.1,71.0,30.00,East,99,10.0,16.0,87,0.00,,,0.00,weatherlink.com 1.10,2013-04-11 10:38:00,
2013-04-11 06:53:00,75.1,71.0,30.00,ESE,113,9.0,9.0,87,0.00,,,0.00,weatherlink.com 1.10,2013-04-11 10:53:00,
2013-04-11 07:08:00,75.1,71.0,30.01,ENE,63,3.0,10.0,86,0.00,,,0.00,weatherlink.com 1.10,2013-04-11 11:08:00,
2013-04-11 07:23:00,75.3,71.0,30.02,East,79,5.0,13.0,85,0.00,,,0.00,weatherlink.com 1.10,2013-04-11 11:23:00,
2013-04-11 07:38:00,75.7,71.0,30.02,East,98,7.0,12.0,85,0.00,,,0.00,weatherlink.com 1.10,2013-04-11 11:38:00,
2013-04-11 07:52:00,76.1,71.0,30.02,East,97,6.0,15.0,83,0.00,,,0.00,weatherlink.com 1.10,2013-04-11 11:52:00,
2013-04-11 08:08:00,76.8,71.0,30.03,ENE,68,3.0,15.0,83,0.00,,,0.00,weatherlink.com 1.10,2013-04-11 12:08:00,
2013-04-11 08:23:00,76.9,71.0,30.03,East,84,7.0,11.0,83,0.00,,,0.00,weatherlink.com 1.10,2013-04-11 12:23:00,
2013-04-11 08:38:00,77.0,71.0,30.03,ESE,117,7.0,12.0,82,0.00,,,0.00,weatherlink.com 1.10,2013-04-11 12:38:00,
2013-04-11 08:53:00,77.2,71.0,30.03,East,86,9.0,16.0,82,0.00,,,0.00,weatherlink.com 1.10,2013-04-11 12:53:00,
2013-04-11 09:08:00,77.8,72.0,30.03,ESE,111,4.0,13.0,81,0.00,,,0.00,weatherlink.com 1.10,2013-04-11 13:08:00,
2013-04-11 09:23:00,78.3,72.0,30.04,NE,36,8.0,14.0,81,0.00,,,0.00,weatherlink.com 1.10,2013-04-11 13:23:00,
2013-04-11 09:38:00,78.4,72.0,30.04,ENE,74,16.0,22.0,81,0.00,,,0.00,weatherlink.com 1.10,2013-04-11 13:38:00,
2013-04-11 09:54:00,78.6,72.0,30.04,ENE,71,7.0,18.0,79,0.00,,,0.00,weatherlink.com 1.10,2013-04-11 13:54:00,
2013-04-11 10:09:00,78.4,72.0,30.04,ESE,121,12.0,16.0,80,0.00,,,0.00,weatherlink.com 1.10,2013-04-11 14:09:00,
2013-04-11 10:24:00,78.8,72.0,30.05,ESE,115,7.0,22.0,80,0.00,,,0.00,weatherlink.com 1.10,2013-04-11 14:24:00,
2013-04-11 10:39:00,79.1,72.0,30.05,East,94,13.0,18.0,80,0.00,,,0.00,weatherlink.com 1.10,2013-04-11 14:39:00,
2013-04-11 10:54:00,79.4,72.0,30.05,ESE,107,13.0,17.0,79,0.00,,,0.00,weatherlink.com 1.10,2013-04-11 14:54:00,
2013-04-11 11:09:00,79.9,73.0,30.05,ESE,113,10.0,21.0,78,0.00,,,0.00,weatherlink.com 1.10,2013-04-11 15:09:00,
2013-04-11 11:24:00,80.1,72.0,30.05,NNE,19,8.0,23.0,77,0.00,,,0.00,weatherlink.com 1.10,2013-04-11 15:24:00,
2013-04-11 11:39:00,80.4,73.0,30.04,East,90,6.0,22.0,77,0.00,,,0.00,weatherlink.com 1.10,2013-04-11 15:39:00,
2013-04-11 11:54:00,81.4,73.0,30.04,ENE,78,9.0,24.0,75,0.00,,,0.00,weatherlink.com 1.10,2013-04-11 15:54:00,
2013-04-11 12:09:00,82.0,73.0,30.04,East,100,7.0,17.0,74,0.00,,,0.00,weatherlink.com 1.10,2013-04-11 16:09:00,
2013-04-11 12:24:00,82.3,73.0,30.04,East,98,13.0,17.0,73,0.00,,,0.00,weatherlink.com 1.10,2013-04-11 16:24:00,
2013-04-11 12:39:00,82.0,73.0,30.03,East,88,17.0,17.0,74,0.00,,,0.00,weatherlink.com 1.10,2013-04-11 16:39:00,
2013-04-11 12:54:00,82.0,72.0,30.03,SE,131,8.0,21.0,72,0.00,,,0.00,weatherlink.com 1.10,2013-04-11 16:54:00,
2013-04-11 13:09:00,81.4,72.0,30.02,ENE,69,13.0,22.0,74,0.00,,,0.00,weatherlink.com 1.10,2013-04-11 17:09:00,
2013-04-11 13:24:00,82.1,73.0,30.02,East,87,9.0,17.0,73,0.00,,,0.00,weatherlink.com 1.10,2013-04-11 17:24:00,
2013-04-11 13:39:00,82.7,73.0,30.02,East,98,11.0,19.0,72,0.00,,,0.00,weatherlink.com 1.10,2013-04-11 17:39:00,
2013-04-11 13:54:00,82.8,73.0,30.01,East,101,13.0,16.0,72,0.00,,,0.00,weatherlink.com 1.10,2013-04-11 17:54:00,
2013-04-11 14:09:00,83.0,73.0,30.00,ENE,77,9.0,17.0,71,0.00,,,0.00,weatherlink.com 1.10,2013-04-11 18:09:00,
2013-04-11 14:24:00,83.0,73.0,30.00,ESE,107,19.0,19.0,71,0.00,,,0.00,weatherlink.com 1.10,2013-04-11 18:24:00,
2013-04-11 14:39:00,82.3,72.0,29.99,ESE,120,10.0,19.0,72,0.00,,,0.00,weatherlink.com 1.10,2013-04-11 18:39:00,
2013-04-11 14:54:00,82.9,73.0,29.99,ESE,123,17.0,19.0,71,0.00,,,0.00,weatherlink.com 1.10,2013-04-11 18:54:00,
2013-04-11 15:09:00,83.1,74.0,29.98,East,98,6.0,12.0,73,0.00,,,0.00,weatherlink.com 1.10,2013-04-11 19:09:00,
2013-04-11 15:23:00,82.0,73.0,29.98,NE,44,4.0,17.0,75,0.00,,,0.00,weatherlink.com 1.10,2013-04-11 19:23:00,
2013-04-11 15:39:00,82.3,73.0,29.97,ENE,67,4.0,15.0,74,0.00,,,0.00,weatherlink.com 1.10,2013-04-11 19:39:00,
2013-04-11 15:54:00,81.8,73.0,29.96,ENE,76,3.0,18.0,75,0.00,,,0.00,weatherlink.com 1.10,2013-04-11 19:54:00,
2013-04-11 16:09:00,82.2,73.0,29.96,ESE,110,5.0,15.0,74,0.00,,,0.00,weatherlink.com 1.10,2013-04-11 20:09:00,
2013-04-11 16:24:00,81.1,73.0,29.95,East,98,7.0,17.0,75,0.00,,,0.00,weatherlink.com 1.10,2013-04-11 20:24:00,
2013-04-11 16:39:00,81.0,73.0,29.95,ESE,112,10.0,17.0,76,0.00,,,0.00,weatherlink.com 1.10,2013-04-11 20:39:00,
2013-04-11 16:54:00,80.7,73.0,29.95,NE,54,3.0,15.0,77,0.00,,,0.00,weatherlink.com 1.10,2013-04-11 20:54:00,
2013-04-11 17:09:00,80.4,73.0,29.95,ENE,71,8.0,16.0,78,0.00,,,0.00,weatherlink.com 1.10,2013-04-11 21:09:00,
2013-04-11 17:24:00,80.2,73.0,29.95,East,88,11.0,17.0,79,0.00,,,0.00,weatherlink.com 1.10,2013-04-11 21:24:00,
2013-04-11 17:39:00,79.9,73.0,29.95,East,87,8.0,14.0,79,0.00,,,0.00,weatherlink.com 1.10,2013-04-11 21:39:00,
2013-04-11 17:54:00,79.6,73.0,29.95,East,94,10.0,15.0,80,0.00,,,0.00,weatherlink.com 1.10,2013-04-11 21:54:00,
2013-04-11 18:09:00,79.4,73.0,29.94,East,84,6.0,14.0,81,0.00,,,0.00,weatherlink.com 1.10,2013-04-11 22:09:00,
2013-04-11 18:24:00,79.2,73.0,29.94,ENE,67,2.0,15.0,81,0.00,,,0.00,weatherlink.com 1.10,2013-04-11 22:24:00,
2013-04-11 18:39:00,79.5,73.0,29.94,East,89,8.0,13.0,81,0.00,,,0.00,weatherlink.com 1.10,2013-04-11 22:39:00,
2013-04-11 18:54:00,78.5,73.0,29.94,ESE,121,10.0,14.0,83,0.00,,,0.00,weatherlink.com 1.10,2013-04-11 22:54:00,
2013-04-11 19:09:00,78.2,73.0,29.94,ENE,67,5.0,12.0,84,0.00,,,0.00,weatherlink.com 1.10,2013-04-11 23:09:00,
2013-04-11 19:23:00,78.0,73.0,29.94,ESE,102,4.0,13.0,85,0.00,,,0.00,weatherlink.com 1.10,2013-04-11 23:23:00,
2013-04-11 19:39:00,77.5,73.0,29.94,East,98,10.0,17.0,86,0.00,,,0.00,weatherlink.com 1.10,2013-04-11 23:39:00,
2013-04-11 19:54:00,77.1,73.0,29.93,ESE,107,1.0,17.0,87,0.00,,,0.00,weatherlink.com 1.10,2013-04-11 23:54:00,
2013-04-11 20:09:00,77.0,73.0,29.93,NE,40,6.0,13.0,87,0.00,,,0.00,weatherlink.com 1.10,2013-04-12 00:09:00,
2013-04-11 20:24:00,76.9,73.0,29.94,East,93,9.0,11.0,88,0.00,,,0.00,weatherlink.com 1.10,2013-04-12 00:24:00,
2013-04-11 20:39:00,76.8,73.0,29.93,ESE,105,3.0,12.0,88,0.00,,,0.00,weatherlink.com 1.10,2013-04-12 00:39:00,
2013-04-11 20:54:00,76.8,73.0,29.94,ENE,64,7.0,10.0,88,0.00,,,0.00,weatherlink.com 1.10,2013-04-12 00:54:00,
2013-04-11 21:09:00,76.8,73.0,29.95,ESE,106,2.0,14.0,89,0.00,,,0.00,weatherlink.com 1.10,2013-04-12 01:09:00,
2013-04-11 21:24:00,76.8,73.0,29.94,ENE,67,4.0,13.0,89,0.00,,,0.00,weatherlink.com 1.10,2013-04-12 01:24:00,
2013-04-11 21:39:00,76.8,73.0,29.95,ENE,76,5.0,13.0,89,0.00,,,0.00,weatherlink.com 1.10,2013-04-12 01:39:00,
2013-04-11 21:55:00,76.8,73.0,29.95,ENE,74,5.0,14.0,89,0.00,,,0.00,weatherlink.com 1.10,2013-04-12 01:55:00,
2013-04-11 22:09:00,76.9,74.0,29.95,SE,129,12.0,16.0,89,0.00,,,0.00,weatherlink.com 1.10,2013-04-12 02:09:00,
2013-04-11 22:25:00,76.9,74.0,29.95,East,81,2.0,13.0,89,0.00,,,0.00,weatherlink.com 1.10,2013-04-12 02:25:00,
2013-04-11 22:39:00,76.9,74.0,29.94,East,98,6.0,17.0,89,0.00,,,0.00,weatherlink.com 1.10,2013-04-12 02:39:00,
2013-04-11 22:55:00,76.8,73.0,29.94,East,84,8.0,13.0,89,0.00,,,0.00,weatherlink.com 1.10,2013-04-12 02:55:00,
2013-04-11 23:10:00,76.7,73.0,29.93,ENE,64,8.0,17.0,89,0.00,,,0.00,weatherlink.com 1.10,2013-04-12 03:10:00,
2013-04-11 23:24:00,76.8,73.0,29.94,East,92,6.0,14.0,89,0.00,,,0.00,weatherlink.com 1.10,2013-04-12 03:24:00,
2013-04-11 23:40:00,76.7,73.0,29.94,ESE,113,8.0,15.0,89,0.00,,,0.00,weatherlink.com 1.10,2013-04-12 03:40:00,
2013-04-11 23:55:00,76.8,73.0,29.94,East,98,11.0,19.0,89,0.00,,,0.00,weatherlink.com 1.10,2013-04-12 03:55:00,